SCP
0 0 0 0 0 0 0 0 0 0 0 0 0 0 0 0 0 0 0 0 0 0 0 0 0 0 0 0 0 0 0 0 0 0 0 0 0 0 0 0 0 0 0 0 0 0 0 0 0
0 0 0 0 0 0 0 0 0 0 0 0 0 0 0 0 0 0 0 0 0 0 0 0 0 0 0 0 0 0 0 0 0 0 0 0 0 0 0 0 0 0 0 0 0 0 0 0 0
0 0 0 0 0 0 0 0 0 0 0 0 0 0 0 0 0 0 0 0 0 0 0 0 0 0 0 0 0 0 0 0 0 0 0 0 0 0 0 0 0 0 0 0 0 0 0 0 0
-0 0 0 0 0 0 0 0 0 0 0 0 0 0 0 0 0 0 0 0 0 0 0 0 0 0 0 0 0 0 0 0 0 0 0 0 0 0 0 0 0 0 0 0 0 0 0 0 0
-0 0 0 0 0 0 0 0 0 0 0 0 0 0 0 0 0 0 0 0 0 0 0 0 0 0 0 0 0 0 0 0 0 0 0 0 0 0 0 0 0 0 0 0 0 0 0 0 0
0 0 0 0 0 0 0 0 0 0 0 0 0 0 0 0 0 0 0 0 0 0 0 0 0 0 0 0 0 0 0 0 0 0 0 0 0 0 0 0 0 0 0 0 0 0 0 0 0
-0 0 0 0 0 0 0 0 0 0 0 0 0 0 0 0 0 0 0 0 0 0 0 0 0 0 0 0 0 0 0 0 0 0 0 0 0 0 0 0 0 0 0 0 0 0 0 0 0
0 0 0 0 0 0 0 0 0 0 0 0 0 0 0 0 0 0 0 0 0 0 0 0 0 0 0 0 0 0 0 0 0 0 0 0 0 0 0 0 0 0 0 0 0 0 0 0 0
0 0 0 0 0 0 0 0 0 0 0 0 0 0 0 0 0 0 0 0 0 0 0 0 0 0 0 0 0 0 0 0 0 0 0 0 0 0 0 0 0 0 0 0 0 0 0 0 0
0 0 0 0 0 0 0 0 0 0 0 0 0 0 0 0 0 0 0 0 0 0 0 0 0 0 0 0 0 0 0 0 0 0 0 0 0 0 0 0 0 0 0 0 0 0 0 0 0
0 0 0 0 0 0 0 0 0 0 0 0 0 0 0 0 0 0 0 0 0 0 0 0 0 0 0 0 0 0 0 0 0 0 0 0 0 0 0 0 0 0 0 0 0 0 0 0 0
0 0 0 0 0 0 0 0 0 0 0 0 0 0 1 0 0 0 0 0 0 0 0 0 0 0 0 0 0 0 0 0 0 0 0 0 0 0 0 0 0 0 0 0 0 0 0 0 0
0 0 0 0 0 0 0 0 0 0 0 0 0 0 1 1 0 0 0 0 0 0 0 0 0 0 0 0 0 0 0 0 0 0 0 0 0 0 0 0 0 0 0 0 0 0 0 0 0
0 0 0 0 0 0 0 0 0 0 0 0 0 0 0 0 0 0 0 0 0 0 0 0 0 0 0 0 0 0 0 0 0 0 0 0 0 0 0 0 0 0 0 0 0 0 0 0 0
0 0 0 0 0 0 0 0 0 0 0 0 0 0 0 0 0 0 0 0 0 0 0 0 0 0 0 0 0 0 0 0 0 0 0 0 0 0 0 0 0 0 0 0 0 0 0 0 0
0 0 0 0 0 0 0 0 0 0 0 0 0 0 0 0 0 0 0 0 0 0 0 0 0 0 0 0 0 0 0 0 0 0 0 0 0 0 0 0 0 0 0 0 0 0 0 0 0
0 0 0 0 0 0 0 0 0 0 0 0 0 0 0 0 0 0 0 0 0 0 0 0 0 0 0 0 0 0 0 0 0 0 0 0 0 0 0 0 0 0 0 0 0 0 0 0 0
0 0 0 0 0 0 0 0 0 0 0 0 0 0 0 0 0 0 0 0 0 0 0 0 0 0 0 0 0 0 0 0 0 0 0 0 0 0 0 0 0 0 0 0 0 0 0 0 0
0 0 0 0 0 0 0 0 0 0 0 0 0 0 0 0 0 0 0 0 0 0 0 0 0 0 0 0 0 0 0 0 0 0 0 0 0 0 0 0 0 0 0 0 0 0 0 0 0
0 0 0 0 0 0 0 0 0 0 0 0 0 0 0 0 0 0 0 0 0 0 0 0 0 0 0 0 0 0 0 0 0 0 0 0 0 0 0 0 0 0 0 0 0 0 0 0 0
0 0 0 0 0 0 0 0 0 0 0 0 0 0 0 0 0 0 0 0 0 0 0 0 0 0 0 0 0 0 0 0 0 0 0 0 0 0 0 0 0 0 0 0 0 0 0 0 0
0 0 0 0 0 0 0 0 0 0 0 0 0 0 0 0 0 0 0 0 0 0 0 0 0 0 0 0 0 0 0 0 0 0 0 0 0 0 0 0 0 0 0 0 0 0 0 0 0
0 0 0 0 0 0 0 0 0 0 0 0 0 0 0 0 0 0 0 0 0 0 0 0 0 0 0 0 0 0 0 0 0 0 0 0 0 0 0 0 0 0 0 0 0 0 0 0 0
0 0 0 0 0 0 0 0 0 0 0 0 0 0 0 0 0 0 0 0 0 0 0 0 0 0 0 0 0 0 0 0 0 0 0 0 0 0 0 0 0 0 0 0 0 0 0 0 0
0 0 0 0 0 0 0 0 0 0 0 0 0 0 0 0 0 0 0 0 0 0 0 0 0 0 0 0 0 0 0 0 1 1 0 0 0 0 0 0 0 0 0 0 0 0 0 0 0
0 0 0 0 0 0 0 0 0 0 0 0 0 0 0 0 0 0 0 0 0 0 0 0 0 0 0 0 0 0 1 1 1 1 0 0 0 0 0 0 0 0 0 0 0 0 0 0 0
0 0 0 0 0 0 0 0 0 0 0 0 0 0 0 0 0 0 0 0 0 0 0 0 0 0 1 1 1 1 1 1 1 1 0 0 0 0 0 0 0 0 0 0 0 0 0 0 0
0 0 0 0 0 0 0 0 0 0 0 0 0 0 0 0 0 0 0 0 0 1 1 1 1 1 1 1 1 1 1 1 1 1 0 0 0 0 0 0 0 0 0 0 0 0 0 0 0
0 0 0 0 0 0 0 0 0 0 0 0 0 0 0 0 0 0 0 0 1 1 1 1 1 1 1 1 1 1 1 1 1 1 0 0 0 0 0 0 0 0 0 0 0 0 0 0 0
0 0 0 0 0 0 0 0 0 0 0 0 0 0 0 0 0 0 0 0 1 1 1 1 1 1 1 1 1 1 1 1 1 1 0 0 0 0 0 0 0 0 0 0 0 0 0 0 0
Wind_Speed
3 3 3 2 5 5 2 2 1 1 1 1 3 4 5 3 3 2 1 7 8 7 6 8 10 9 9 8 8 8 8 9 9 9 8 8 8 8 8 8 7 7 7 8 8 8 8 8 8
3 3 2 4 5 3 3 2 1 1 3 3 4 4 4 3 3 5 4 6 9 8 6 7 10 9 9 9 9 8 8 8 9 8 8 8 8 8 7 7 6 7 7 7 8 7 8 7 7
2 2 3 5 4 3 2 2 1 1 2 2 3 4 3 2 3 4 4 9 8 7 5 6 11 9 9 9 8 8 9 9 8 8 7 8 8 7 7 7 7 8 8 8 8 7 7 7 6
2 3 4 5 0 3 3 2 2 2 1 2 4 4 3 2 3 5 9 11 9 6 5 6 11 9 9 9 9 8 8 8 8 8 7 7 8 8 7 7 7 7 7 7 8 7 6 6 6
3 4 5 3 3 3 3 3 3 2 1 3 4 4 2 3 7 10 10 10 9 6 4 5 10 9 9 8 8 8 8 7 7 7 7 7 7 6 7 7 6 7 7 7 7 6 5 5 5
5 5 5 1 4 3 2 2 2 2 3 3 4 4 2 3 7 9 9 8 7 6 4 4 9 9 8 8 8 7 7 6 6 6 6 6 6 6 6 6 6 6 7 6 6 6 5 4 4
4 4 3 1 3 3 1 1 3 3 3 3 4 5 2 3 5 8 8 7 6 5 4 3 4 5 7 7 7 7 6 6 5 5 5 6 6 5 5 5 5 5 6 6 6 6 5 5 5
4 5 2 1 1 2 1 1 2 3 3 3 4 6 5 6 8 9 8 6 5 4 3 3 3 2 2 3 6 6 5 5 5 5 5 5 5 4 4 4 4 5 5 5 5 5 5 5 5
4 5 1 3 3 3 0 1 1 2 4 2 2 4 6 13 13 10 8 5 5 4 3 3 3 2 2 2 4 4 4 4 4 3 3 3 2 2 2 3 3 4 4 4 4 4 4 4 4
4 3 6 5 4 3 1 1 3 3 3 2 4 6 12 13 13 12 10 9 7 6 5 3 3 3 2 2 2 1 1 1 1 1 1 2 1 1 1 2 3 3 3 3 3 3 3 3 2
4 5 4 4 4 3 2 1 3 6 3 5 8 12 15 13 11 11 10 9 8 6 5 4 3 3 2 1 2 1 1 1 1 1 1 1 1 1 1 1 1 2 2 2 2 2 2 2 2
3 4 4 3 2 2 3 3 3 5 6 5 10 16 16 15 13 12 10 8 7 6 5 4 4 3 2 1 1 1 1 1 1 1 1 1 1 1 1 1 1 1 1 1 1 1 2 2 2
3 3 2 3 2 2 3 3 3 3 2 7 12 13 14 13 11 8 7 6 6 6 6 5 4 4 3 2 1 2 1 1 1 1 1 1 1 1 0 1 1 1 1 1 1 1 2 2 2
3 2 3 3 1 1 3 1 1 2 6 10 12 12 11 11 10 7 7 7 7 7 6 5 5 5 4 3 2 2 2 1 1 1 1 2 1 1 1 0 1 1 1 1 1 1 1 1 1
1 1 4 2 1 1 4 2 3 2 8 10 10 10 9 8 8 9 9 8 8 7 6 6 6 5 5 4 3 2 2 1 1 1 1 2 2 2 1 1 1 1 1 1 1 2 2 2 2
2 3 2 4 1 0 5 4 5 4 9 8 8 9 8 7 8 7 7 7 7 6 6 6 6 5 5 4 3 2 2 2 1 1 1 2 2 2 2 1 0 1 1 1 2 2 2 2 2
4 1 2 4 1 1 3 4 3 4 7 8 7 8 8 6 6 6 6 7 7 7 6 6 4 5 4 4 2 1 1 1 1 1 1 2 2 2 2 1 1 1 2 1 1 2 2 2 2
2 1 2 3 2 1 1 4 2 3 6 6 6 6 7 7 8 6 6 6 5 5 5 5 4 4 3 3 2 1 1 1 1 1 2 2 2 2 2 2 1 2 2 1 1 2 2 2 1
3 2 3 5 3 1 3 3 3 4 4 5 5 5 6 7 6 5 5 5 5 4 5 5 4 4 3 3 3 2 2 1 1 1 2 2 2 2 3 2 2 2 2 2 2 2 2 2 1
2 1 3 5 2 1 1 3 2 4 6 8 8 8 7 6 4 5 5 5 6 6 5 4 4 4 4 3 3 2 2 1 2 1 1 2 3 3 3 3 2 2 2 2 2 2 2 1 1
3 4 4 3 3 3 1 4 2 2 1 3 5 5 6 8 8 7 7 6 6 7 7 6 6 5 4 3 2 2 1 1 0 1 1 2 3 3 3 3 3 3 3 2 2 2 3 2 1
4 5 5 3 1 2 1 2 5 2 2 3 5 5 7 7 7 7 7 7 8 8 7 6 5 4 4 4 4 4 4 3 3 2 2 2 2 3 3 3 3 3 2 2 2 2 2 3 1
5 1 3 2 3 1 2 2 7 1 3 5 5 6 6 7 8 8 9 9 8 7 6 6 5 5 5 5 6 5 4 3 2 2 2 2 2 2 3 3 3 3 2 2 2 2 2 2 2
3 5 5 5 5 0 3 3 6 3 5 5 4 5 5 5 6 6 6 6 6 6 6 5 5 5 5 5 5 5 5 4 3 3 3 2 1 1 2 3 3 3 2 2 3 3 3 2 2
4 6 4 4 3 5 2 3 7 5 4 5 5 6 5 5 5 5 6 6 7 7 6 5 6 5 5 4 4 4 5 5 5 4 4 3 2 2 3 3 3 3 2 2 2 3 2 2 2
3 7 7 5 5 4 1 4 6 3 2 2 3 4 4 4 5 6 7 7 7 8 7 7 7 6 5 5 5 4 3 3 3 3 3 3 3 3 3 3 3 3 3 2 2 2 2 2 2
4 3 5 7 2 1 4 4 6 2 2 3 3 2 2 3 5 6 5 6 7 8 8 8 7 5 5 5 4 4 3 3 3 3 3 3 3 3 4 4 3 3 3 3 3 2 2 2 2
4 7 5 5 5 3 4 4 4 4 4 4 3 3 3 3 3 4 5 5 6 6 6 6 6 6 5 5 5 4 4 4 3 3 3 3 3 3 4 4 4 3 3 2 3 2 1 2 2
3 4 5 4 4 6 3 6 4 5 4 4 5 4 3 3 3 4 5 4 4 3 4 5 5 5 4 4 4 4 4 4 4 3 3 3 3 3 4 4 4 3 3 2 2 2 2 2 2
3 4 6 5 3 4 3 7 4 2 2 2 4 4 3 3 2 3 4 4 4 4 4 5 5 5 5 4 4 4 3 3 4 3 2 2 3 3 4 3 3 3 3 3 3 3 3 3 2
Wind_Direction
152 126 120 90 57 49 360 287 217 327 21 51 104 105 118 119 157 176 135 139 134 139 148 148 144 139 131 124 117 113 111 108 107 105 104 104 110 115 118 120 121 125 132 131 126 127 129 127 122
139 141 90 64 77 56 302 271 210 209 155 122 92 82 80 73 74 109 130 141 135 138 138 145 147 140 132 125 119 114 113 109 106 104 103 102 105 109 114 116 117 123 127 129 129 128 129 129 127
158 138 89 73 92 164 236 243 175 105 132 116 91 70 85 114 127 146 152 137 129 133 137 154 146 140 133 126 120 113 112 110 106 103 103 102 103 105 110 112 109 117 120 114 118 124 127 128 126
112 53 55 68 63 227 223 227 164 144 74 78 111 85 69 74 142 141 135 136 132 136 143 156 146 143 137 129 123 117 113 110 106 103 102 100 100 100 100 109 112 118 119 118 118 114 111 116 119
64 74 58 33 288 266 238 201 169 156 126 99 110 99 55 25 105 124 133 137 138 141 146 157 148 144 139 131 125 120 116 111 107 106 105 102 101 101 98 100 112 120 123 123 121 118 114 115 117
56 64 74 330 300 302 270 179 136 112 103 109 109 103 67 105 121 134 132 130 136 141 141 148 152 147 142 135 127 123 117 112 108 106 105 104 102 102 101 99 108 122 126 124 120 115 117 126 127
101 93 132 225 293 317 305 133 124 116 116 150 131 110 116 146 140 132 124 121 126 133 134 135 144 146 145 140 133 126 121 116 112 109 111 109 106 106 105 101 100 115 128 121 122 116 112 112 123
122 100 99 244 246 279 295 41 102 119 132 130 127 145 177 174 140 124 117 118 127 130 130 131 132 128 134 140 143 134 126 121 115 110 116 115 111 108 105 99 95 102 124 124 124 119 117 120 119
93 79 185 219 203 248 279 69 68 81 113 113 119 159 159 138 136 130 130 133 146 154 148 147 145 140 136 139 154 142 136 129 124 121 124 109 72 66 83 97 101 104 110 113 115 120 123 127 123
95 137 221 218 204 216 257 193 160 111 104 96 72 90 123 138 146 151 158 163 170 176 175 167 162 160 152 159 128 105 113 101 88 75 80 75 69 47 70 77 95 98 98 95 99 107 108 108 97
150 192 232 246 227 201 198 194 151 138 195 201 165 149 145 150 157 165 171 174 177 177 177 178 176 168 161 145 129 109 88 79 71 73 83 79 67 37 38 41 30 32 51 51 50 57 68 85 98
176 237 227 250 206 189 192 171 156 173 216 186 158 154 153 161 170 176 176 176 168 168 179 177 171 164 163 140 136 129 118 112 113 103 99 95 82 54 30 33 23 33 42 47 47 60 66 82 95
208 260 260 254 258 204 163 180 182 222 162 125 137 151 163 169 174 177 172 167 164 172 177 176 167 169 165 151 157 151 160 162 161 140 125 131 132 131 79 35 44 39 43 54 47 59 69 82 93
229 253 289 297 280 182 144 230 126 244 130 128 143 161 172 174 171 165 166 174 178 180 176 170 173 175 168 169 169 168 175 178 164 172 171 159 155 155 141 91 54 41 50 69 83 78 79 79 94
283 348 337 324 306 195 104 358 258 193 133 137 153 163 172 177 173 179 183 181 183 182 176 176 179 176 174 175 181 174 181 174 180 185 175 168 164 160 155 124 64 44 76 84 79 70 75 80 82
52 54 336 304 340 190 125 244 271 153 142 151 163 170 176 183 186 190 183 180 176 172 173 183 184 176 178 175 179 175 170 167 186 176 164 173 171 160 149 129 93 82 88 89 91 78 80 70 71
34 64 256 299 327 81 130 236 260 167 156 167 175 178 179 182 194 192 182 180 176 174 172 177 175 170 178 171 158 162 152 165 182 159 157 167 165 157 146 141 130 108 92 85 97 81 96 85 70
229 229 265 265 293 77 200 246 261 185 169 175 180 181 181 188 202 191 177 173 168 165 166 169 164 166 164 152 136 130 125 176 178 176 175 168 169 160 147 142 123 117 104 90 96 98 85 95 86
180 195 257 267 254 180 234 251 250 194 178 181 187 191 192 200 197 182 175 169 160 164 169 169 165 172 162 162 168 174 199 208 204 210 188 177 175 168 156 149 134 132 130 135 130 119 99 70 65
181 215 267 296 325 148 238 287 262 196 193 191 194 199 203 203 191 186 178 173 174 178 182 175 179 181 182 186 182 173 168 185 193 200 189 185 180 173 167 150 148 148 138 125 122 116 114 84 70
216 200 220 240 347 27 65 328 307 267 194 196 211 206 204 205 198 195 190 190 184 185 186 189 192 190 188 173 140 119 96 75 112 200 209 207 183 172 162 156 151 155 154 158 153 138 132 139 74
246 228 200 195 122 299 84 278 294 278 265 225 221 214 211 210 203 198 194 194 194 196 188 184 185 187 185 171 170 173 181 193 208 202 202 198 181 169 163 159 159 162 158 155 166 144 137 137 138
215 165 143 150 145 49 13 156 284 327 264 255 240 227 220 213 204 201 199 196 195 190 184 182 176 182 183 181 183 183 193 202 187 170 175 186 190 179 171 160 157 162 162 161 153 139 140 139 144
153 73 60 53 76 302 239 169 272 252 233 252 249 237 230 219 212 206 197 185 190 184 179 172 171 186 183 182 183 185 190 183 174 182 185 193 188 183 177 164 163 163 161 165 168 160 153 156 147
92 91 36 2 15 248 245 180 247 261 246 236 248 249 236 214 199 192 190 187 189 184 179 175 178 191 187 181 186 194 195 189 194 195 190 185 183 187 192 176 170 168 168 165 158 157 163 164 159
169 143 158 194 219 267 292 222 249 261 288 266 256 246 232 218 198 192 192 190 190 187 182 178 189 199 190 186 193 193 190 191 199 198 192 191 194 193 180 173 170 165 160 161 152 155 172 157 167
141 168 161 134 151 237 275 282 298 295 338 334 322 302 259 233 209 195 187 185 190 189 188 187 188 196 195 191 188 183 181 182 189 187 189 193 190 180 170 169 166 166 166 167 157 163 177 156 158
131 140 102 121 154 229 278 269 247 265 278 293 302 292 287 270 220 192 184 190 190 189 185 180 179 184 191 188 191 190 185 183 182 174 184 189 186 177 167 171 172 168 170 167 159 159 169 153 160
89 89 103 115 151 160 227 265 229 219 244 267 275 279 270 264 227 201 191 188 181 173 173 179 177 173 178 185 188 184 185 179 176 179 192 190 178 176 176 181 180 175 175 171 159 161 160 164 174
138 148 142 148 206 172 178 261 280 225 259 274 291 300 291 272 227 200 181 166 164 172 178 179 181 184 189 181 174 185 184 177 175 185 189 189 187 182 183 179 175 178 177 172 171 179 175 176 191